Weather History for LFMO - March, 2013

Change the Weather History Date:

Monday, March 11, 2013

  Actual Average (LFTW) Record (LFTW)
Temperature  
Mean Temperature 50 °F -  
Max Temperature 64 °F 58 °F 71 °F (2015)
Min Temperature 37 °F 42 °F 30 °F (2004)
Degree Days  
Heating Degree Days 14    
Moisture  
Dew Point 41 °F    
Average Humidity 75    
Maximum Humidity 100    
Minimum Humidity 34    
Precipitation  
Precipitation 0.00 in - - ()
Sea Level Pressure  
Sea Level Pressure 29.51 in    
Wind  
Wind Speed 4 mph ()    
Max Wind Speed 12 mph    
Max Gust Speed -    
Visibility 5.7 miles    
Events Fog    
Averages and records for this station are not official NWS values.
T = Trace of Precipitation, MM = Missing Value Source: Averaged Metar Reports

Daily Weather History Graph

Daily Weather History Graph

Search for Another Location

Airport or City:

Trip Planner

Search our weather history database for the weather conditions in past years. The results will help you decide how hot, cold, wet, or windy it might be!

Date:

Astronomy

Mar. 11, 2013 Rise Set
Actual Time 7:00 AM CET 6:41 PM CET
Civil Twilight 6:31 AM CET 7:10 PM CET
Nautical Twilight 5:57 AM CET 7:44 PM CET
Astronomical Twilight 5:23 AM CET 8:18 PM CET
Moon 6:24 AM CET (3/11) 6:38 PM CET (3/11)
Length of Visible Light 12h 39m
Length of Day
11h 41m
Waning Crescent, 0% of the Moon is Illuminated
Mar 11
Waning Crescent
Mar 11
New
Mar 19
First Quarter
Mar 27
Full
Apr 3
Last Quarter

Hourly Weather History & Observations

Time (CET) Temp. Windchill Dew Point Humidity Pressure Visibility Wind Dir Wind Speed Gust Speed Precip Events Conditions
12:00 AM 42.8 °F - 41.0 °F 93% 29.56 in 6.2 mi Variable 2.3 mph - N/A   Mostly Cloudy
12:30 AM 44.6 °F - 42.8 °F 93% 29.56 in 6.2 mi SSW 2.3 mph - N/A   Mostly Cloudy
1:00 AM 44.6 °F 42.2 °F 42.8 °F 93% 29.56 in 6.2 mi NE 4.6 mph - N/A   Mostly Cloudy
1:30 AM 42.8 °F 41.1 °F 41.0 °F 93% 29.56 in 6.2 mi NE 3.5 mph - N/A   Unknown
2:00 AM 42.8 °F 41.1 °F 41.0 °F 93% 29.56 in 6.2 mi NNE 3.5 mph - N/A   Mostly Cloudy
2:30 AM 42.8 °F - 42.8 °F 100% 29.56 in 6.2 mi Calm Calm - N/A   Overcast
3:00 AM 42.8 °F 41.1 °F 42.8 °F 100% 29.53 in 6.2 mi NE 3.5 mph - N/A   Mostly Cloudy
3:30 AM 42.8 °F 41.1 °F 41.0 °F 93% 29.53 in 6.2 mi WNW 3.5 mph - N/A   Unknown
4:00 AM 42.8 °F - 41.0 °F 93% 29.53 in 6.2 mi North 2.3 mph - N/A   Unknown
4:30 AM 41.0 °F - 39.2 °F 93% 29.53 in 5.6 mi Calm Calm - N/A   Unknown
5:00 AM 39.2 °F - 39.2 °F 100% 29.53 in 6.2 mi NE 2.3 mph - N/A   Unknown
5:30 AM 39.2 °F - 39.2 °F 100% 29.53 in 6.2 mi Variable 1.2 mph - N/A   Unknown
6:00 AM 39.2 °F - 37.4 °F 93% 29.53 in 0.6 mi North 2.3 mph - N/A Fog Fog
6:30 AM 39.2 °F - 39.2 °F 100% 29.53 in 0.1 mi Calm Calm - N/A Fog Fog
7:00 AM 37.4 °F - 37.4 °F 100% 29.53 in 1.2 mi Calm Calm - N/A Fog Patches of Fog
7:30 AM 39.2 °F 35.9 °F 39.2 °F 100% 29.53 in 1.1 mi WNW 4.6 mph - N/A Fog Patches of Fog
8:00 AM 42.8 °F 41.1 °F 42.8 °F 100% 29.53 in 6.2 mi Variable 3.5 mph - N/A   Unknown
8:30 AM 46.4 °F - 44.6 °F 93% 29.53 in 6.2 mi Variable 2.3 mph - N/A   Unknown
9:00 AM 48.2 °F - 44.6 °F 87% 29.53 in 6.2 mi Variable 3.5 mph - N/A   Unknown
9:30 AM 51.8 °F - 44.6 °F 76% 29.53 in 6.2 mi WNW 3.5 mph - N/A   Unknown
10:00 AM 53.6 °F - 46.4 °F 77% 29.53 in 6.2 mi West 6.9 mph - N/A   Unknown
10:30 AM 57.2 °F - 46.4 °F 67% 29.53 in 6.2 mi WNW 10.4 mph - N/A   Unknown
11:00 AM 57.2 °F - 46.4 °F 67% 29.53 in 6.2 mi WNW 10.4 mph - N/A   Unknown
11:30 AM 59.0 °F - 44.6 °F 59% 29.53 in 6.2 mi WNW 9.2 mph - N/A   Unknown
12:00 PM 60.8 °F - 41.0 °F 48% 29.53 in 6.2 mi WNW 11.5 mph - N/A   Unknown
12:30 PM 60.8 °F - 42.8 °F 52% 29.53 in 6.2 mi WNW 9.2 mph - N/A   Unknown
1:00 PM 60.8 °F - 42.8 °F 52% 29.50 in 6.2 mi WNW 6.9 mph - N/A   Unknown
1:30 PM 62.6 °F - 41.0 °F 45% 29.50 in 6.2 mi NW 8.1 mph - N/A   Unknown
2:00 PM 64.4 °F - 41.0 °F 42% 29.50 in 6.2 mi NNW 4.6 mph - N/A   Unknown
2:30 PM 64.4 °F - 37.4 °F 37% 29.47 in 6.2 mi NW 8.1 mph - N/A   Unknown
3:00 PM 64.4 °F - 35.6 °F 34% 29.47 in 6.2 mi West 3.5 mph - N/A   Unknown
3:30 PM 64.4 °F - 37.4 °F 37% 29.47 in 6.2 mi West 6.9 mph - N/A   Unknown
4:00 PM 62.6 °F - 37.4 °F 39% 29.47 in 6.2 mi WNW 4.6 mph - N/A   Unknown
4:30 PM 60.8 °F - 39.2 °F 45% 29.47 in 6.2 mi West 5.8 mph - N/A   Unknown
5:00 PM 59.0 °F - 39.2 °F 48% 29.47 in 6.2 mi WSW 6.9 mph - N/A   Unknown
5:30 PM 59.0 °F - 39.2 °F 48% 29.47 in 6.2 mi West 6.9 mph - N/A   Overcast
6:00 PM 57.2 °F - 39.2 °F 51% 29.47 in 6.2 mi WNW 5.8 mph - N/A   Overcast
6:30 PM 55.4 °F - 41.0 °F 58% 29.50 in 6.2 mi WNW 9.2 mph - N/A   Mostly Cloudy
7:00 PM 53.6 °F - 41.0 °F 62% 29.47 in 6.2 mi WNW 6.9 mph - N/A   Unknown
7:30 PM 51.8 °F - 41.0 °F 67% 29.50 in 6.2 mi Variable 1.2 mph - N/A   Unknown
8:00 PM 50.0 °F - 41.0 °F 71% 29.50 in 6.2 mi East 4.6 mph - N/A   Unknown
8:30 PM 48.2 °F - 41.0 °F 76% 29.50 in 6.2 mi Calm Calm - N/A   Unknown
9:00 PM 46.4 °F 45.2 °F 39.2 °F 76% 29.50 in 6.2 mi North 3.5 mph - N/A   Unknown
9:30 PM 46.4 °F - 41.0 °F 81% 29.50 in 6.2 mi NW 1.2 mph - N/A   Unknown
10:00 PM 44.6 °F 43.1 °F 41.0 °F 87% 29.50 in 6.2 mi NE 3.5 mph - N/A   Unknown
10:30 PM 42.8 °F - 39.2 °F 87% 29.50 in 6.2 mi ESE 2.3 mph - N/A   Unknown
11:00 PM 42.8 °F - 39.2 °F 87% 29.50 in 6.2 mi Variable 2.3 mph - N/A   Unknown
11:30 PM 42.8 °F - 39.2 °F 87% 29.50 in 6.2 mi Calm Calm - N/A   Unknown